TimeCDT,TemperatureF,Dew PointF,Humidity,Sea Level PressureIn,VisibilityMPH,Wind Direction,Wind SpeedMPH,Gust SpeedMPH,PrecipitationIn,Events,Conditions,WindDirDegrees,DateUTC
12:57 AM,33.1,21.9,64,30.07,10.0,Calm,Calm,-,N/A,,Clear,0,2013-03-12 05:57:00
1:57 AM,30.9,23.0,72,30.07,10.0,SSE,4.6,-,N/A,,Clear,160,2013-03-12 06:57:00
2:57 AM,28.9,23.0,78,30.10,10.0,Calm,Calm,-,N/A,,Clear,0,2013-03-12 07:57:00
4:57 AM,32.0,27.0,82,30.10,10.0,SSW,4.6,-,N/A,,Overcast,200,2013-03-12 09:57:00
5:57 AM,34.0,27.0,75,30.15,10.0,SW,3.5,-,N/A,,Overcast,230,2013-03-12 10:57:00
6:57 AM,36.0,25.0,64,30.15,10.0,SW,5.8,-,N/A,,Mostly Cloudy,220,2013-03-12 11:57:00
7:57 AM,37.0,24.1,59,30.16,10.0,SSW,4.6,-,N/A,,Mostly Cloudy,210,2013-03-12 12:57:00
8:57 AM,37.9,26.1,62,30.20,10.0,West,4.6,-,N/A,,Overcast,260,2013-03-12 13:57:00
9:57 AM,41.0,27.0,57,30.22,10.0,WNW,9.2,-,N/A,,Mostly Cloudy,290,2013-03-12 14:57:00
10:57 AM,44.1,27.0,51,30.23,10.0,NW,8.1,-,N/A,,Scattered Clouds,310,2013-03-12 15:57:00
11:57 AM,48.0,28.0,46,30.22,10.0,WNW,8.1,-,N/A,,Scattered Clouds,290,2013-03-12 16:57:00
12:57 PM,51.1,19.9,29,30.24,10.0,NNW,10.4,-,N/A,,Clear,330,2013-03-12 17:57:00
1:57 PM,53.1,21.9,30,30.22,10.0,Variable,5.8,-,N/A,,Clear,0,2013-03-12 18:57:00
2:57 PM,53.1,21.9,30,30.20,10.0,Variable,3.5,-,N/A,,Clear,0,2013-03-12 19:57:00
3:57 PM,54.0,25.0,33,30.19,10.0,West,12.7,23.0,N/A,,Clear,280,2013-03-12 20:57:00
4:57 PM,54.0,25.0,33,30.20,10.0,WNW,18.4,26.5,N/A,,Clear,300,2013-03-12 21:57:00
5:57 PM,52.0,26.1,37,30.20,10.0,West,15.0,20.7,N/A,,Clear,270,2013-03-12 22:57:00
6:57 PM,50.0,27.0,41,30.21,10.0,WNW,11.5,20.7,N/A,,Scattered Clouds,290,2013-03-12 23:57:00
7:57 PM,46.9,27.0,46,30.25,10.0,NW,13.8,19.6,N/A,,Scattered Clouds,320,2013-03-13 00:57:00
8:57 PM,45.0,23.0,42,30.28,10.0,NW,17.3,23.0,N/A,,Clear,320,2013-03-13 01:57:00
9:57 PM,42.1,21.0,43,30.31,10.0,NW,11.5,-,N/A,,Clear,310,2013-03-13 02:57:00
10:57 PM,39.9,19.0,43,30.34,10.0,NW,8.1,-,N/A,,Clear,320,2013-03-13 03:57:00
11:57 PM,37.9,19.9,48,30.34,10.0,NNW,4.6,-,N/A,,Clear,330,2013-03-13 04:57:00